Lexington Weather

Lexington, Massachusetts, USA

57°F
6/23/2021 2:07am 
  • Lexington Conditions: Partly cloudy
  • Temperature: 56.5°F / 13.6°CColder 2.1°F than last hour.
  • Dew Point: 54.5°FDecreased 2.7°Fsince last hour.
  • Relative Humidity: 93%Decreased 2.0% since last hour.
  • Wind: Calm, 10-min avg: Calm, gust: None
  • Barometer: 29.83 inRising 0.02  inHg/hr Rising Slowly
  • Visibility: 10 miles
  • Rain Today: 0.00 in
  •   

Regional Weather Roundup
for Boston / Norton, MA

        
000
ASUS41 KBOX 210304
RWRBOX

REGIONAL WEATHER ROUNDUP
NATIONAL WEATHER SERVICE BOSTON/NORTON MA
1100 PM EDT SUN JUN 20 2021

NOTE:  "FAIR" INDICATES FEW OR NO CLOUDS BELOW 12,000 FEET WITH NO 
SIGNIFICANT WEATHER AND/OR OBSTRUCTIONS TO VISIBILITY.

MAZALL-210400-
EASTERN MASSACHUSETTS
  
CITY           SKY/WX    TMP DP  RH WIND       PRES   REMARKS
BOSTON         PTCLDY    77  63  61 SW13      29.80R                  
BEVERLY        CLEAR     76  65  68 SW8       29.79R                  
LAWRENCE       CLEAR     77  63  61 SW9       29.80R                  
BEDFORD        CLEAR     75  65  70 SW7       29.79R                  
BLUE HILL        N/A     71  64  78 S12       29.82R                  
NORWOOD        CLEAR     69  63  81 SE6       29.80S                  
MARSHFIELD     CLEAR     72  64  78 SW6G12    29.81R                  
PLYMOUTH       CLEAR     70  62  76 S6        29.83R                  
TAUNTON        CLEAR     72  63  73 SW6       29.82R                  
NEW BEDFORD    CLEAR     69  65  86 SW9       29.83R                  
$$

MAZALL-210400-
CAPE COD AND THE ISLANDS
  
CITY           SKY/WX    TMP DP  RH WIND       PRES   REMARKS
FALMOUTH       CLEAR     68  64  88 W10       29.85R                  
HYANNIS        CLEAR     70  65  84 SW13      29.83R                  
CHATHAM        CLEAR     67  64  90 SW7       29.85S                  
PROVINCETOWN   CLEAR     66  64  93 S9        29.83R                  
NANTUCKET      CLEAR     67  64  90 SW8       29.86R                  
MARTHAS VNYRD  CLEAR     66  65  96 SW7       29.85R                  
$$
 
MAZALL-210400-
CENTRAL AND WESTERN MASSACHUSETTS
  
CITY           SKY/WX    TMP DP  RH WIND       PRES   REMARKS
WORCESTER      CLEAR     71  64  78 SW8       29.84F                  
FITCHBURG      CLEAR     75  66  73 SE6       29.80S                  
ORANGE         PTCLDY    70  64  81 S6        29.81S                  
SPRINGFIELD    PTCLDY    75  66  74 S7        29.78S                  
WESTFIELD      PTCLDY    74  68  81 S8        29.79S                  
NORTH ADAMS    PTCLDY    66  61  84 CALM      29.79S                  
PITTSFIELD     PTCLDY    67  63  87 CALM      29.81F                  
$$
 
RIZALL-210400-
RHODE ISLAND
  
CITY           SKY/WX    TMP DP  RH WIND       PRES   REMARKS
PROVIDENCE     PTCLDY    73  65  75 S5        29.82F                  
NEWPORT        CLEAR     67  65  93 S5        29.83F                  
BLOCK ISLAND   MOCLDY    66  63  90 SW13      29.84F                  
SMITHFIELD     CLEAR     70  68  93 SW3       29.83F                  
WESTERLY       PTCLDY    66  63  90 S3        29.83F                  
$$
 
CTZALL-210400-
CONNECTICUT
  
CITY           SKY/WX    TMP DP  RH WIND       PRES   REMARKS
BRADLEY INTL   PTCLDY    76  67  73 S7        29.79F                  
HARTFORD       CLEAR     75  66  73 SE6       29.79F                  
BRIDGEPORT     PTCLDY    75  67  76 SW3       29.80F                  
DANBURY        PTCLDY    75  68  78 CALM      29.82F                  
GROTON         CLOUDY    68  65  90 S3        29.81F                  
NEW HAVEN      PTCLDY    72  67  84 CALM      29.80F                  
CHESTER        FAIR      72  68  88 SW6G12    29.82F                  
MERIDEN        PTCLDY    73  66  78 S3        29.80F                  
WILLIMANTIC    CLEAR     72  66  81 VRB3      29.81F                  
OXFORD         PTCLDY    72  71  97 S5        29.83F                  
$$

MEZ002-015-021-024-NHZ003-005-008-011-012-014-VTZ005-008-210400-
NORTHERN NEW ENGLAND
  
CITY           SKY/WX    TMP DP  RH WIND       PRES   REMARKS
PORTLAND ME    CLEAR     65  60  84 SW3       29.76F                  
BANGOR ME      PTCLDY    68  59  73 S5        29.77S                  
CONCORD NH     CLEAR     67  57  70 CALM      29.78S                  
MANCHESTER NH  CLEAR     78  62  57 S7        29.77S                  
NASHUA NH      CLEAR     75  67  76 VRB3      29.79S                  
PORTSMOUTH NH  PTCLDY    72  62  69 SW7       29.78R                  
JAFFREY NH     CLEAR     66  62  87 CALM      29.82F                  
KEENE NH       CLEAR     66  62  87 CALM      29.79F                  
BURLINGTON VT  PTCLDY    72  62  71 CALM      29.72F                  
MT. WASHINGTON NOT AVBL                                               
$$

NYZ052-076-210400-
EASTERN NEW YORK
  
CITY           SKY/WX    TMP DP  RH WIND       PRES   REMARKS
ALBANY         PTCLDY    71  65  81 CALM      29.75F                  
NEW YORK CITY  MOCLDY    82  68  62 S8        29.79S                  
$$
 
ANZALL-210400-
MARINE OBSERVATIONS
  
STATION/POSITION TIME  TEMP    WIND        PRES    VSBY  WAVE
                       AIR SEA DIR/SP/G                  HT/PER
                 (UTC) (F)     (DEG/KT/KT) (MB)    (MI)  (FT/S)
BOSTON BUOY      0240   67 63  210/  8/ 10 1009.4R
BUZZARDS BAY     0200          230/  7/  7 1011.5R
NANTUCKET SOUND  0240      67                N/A
MASS BAY-STELLWA 0204   66 60  220/ 10/ 10 1008.6R  1 7/8  1/ 4
ISLE OF SHOALS   0200   71     190/ 19/ 20 1007.6R
S OF BLOCK IS    0226      66                N/A           4/ 8
$$

......................KEY.........................
  SKY/WX - SKY CONDITION/PRESENT WEATHER
  TMP    - TEMPERATURE IN FAHRENHEIT
  DWPT   - DEWPOINT IN FAHRENHEIT
  RH     - RELATIVE HUMIDITY IN PERCENT
  WIND   - DIRECTION AND SPEED IN MPH
  PRES   - MEAN SEA LEVEL PRESSURE IN INCHES OF HG
  WCI    - WIND CHILL INDEX
  VSB    - VISIBILITY IN MILES
  HX     - HEAT INDEX
  TC     - TEMPERATURE IN CELSIUS
  VRB    - VARIABLE WIND DIRECTION
  N/A    - NOT AVAILABLE
  
      

Other recent Regional Weather Roundups

Wed Jun 23, 2:04am

Wed Jun 23, 1:05am

Wed Jun 23, 12:04am

Tue Jun 22, 11:04pm

Tue Jun 22, 10:04pm

Tue Jun 22, 9:05pm

Tue Jun 22, 8:04pm

Tue Jun 22, 7:05pm

Tue Jun 22, 6:04pm

Tue Jun 22, 5:04pm

Tue Jun 22, 4:04pm

Tue Jun 22, 3:05pm

Tue Jun 22, 2:05pm

Tue Jun 22, 1:04pm

Tue Jun 22, 12:04pm

Tue Jun 22, 11:04am

Tue Jun 22, 10:04am

Tue Jun 22, 9:04am

Tue Jun 22, 8:05am

Tue Jun 22, 7:04am

Tue Jun 22, 6:04am

Tue Jun 22, 5:04am

Tue Jun 22, 4:04am

Tue Jun 22, 3:04am

Tue Jun 22, 2:04am

Tue Jun 22, 1:04am

Tue Jun 22, 12:04am

Mon Jun 21, 11:04pm

Mon Jun 21, 10:04pm

Mon Jun 21, 9:05pm

Mon Jun 21, 8:04pm

Mon Jun 21, 7:04pm

Mon Jun 21, 6:04pm

Mon Jun 21, 5:04pm

Mon Jun 21, 4:04pm

Mon Jun 21, 3:04pm

Mon Jun 21, 2:04pm

Mon Jun 21, 1:04pm

Mon Jun 21, 12:04pm

Mon Jun 21, 11:04am

Mon Jun 21, 10:04am

Mon Jun 21, 9:04am

Mon Jun 21, 8:04am

Mon Jun 21, 7:04am

Mon Jun 21, 6:04am

Mon Jun 21, 5:04am

Mon Jun 21, 4:04am

Mon Jun 21, 3:04am

Mon Jun 21, 2:04am

Mon Jun 21, 1:04am

Mon Jun 21, 12:04am

Sun Jun 20, 10:04pm

Sun Jun 20, 9:04pm

Sun Jun 20, 8:04pm

Sun Jun 20, 7:04pm

Sun Jun 20, 6:04pm

Sun Jun 20, 5:04pm

Sun Jun 20, 4:04pm

Sun Jun 20, 3:04pm

Sun Jun 20, 2:04pm

Sun Jun 20, 1:05pm

Sun Jun 20, 12:04pm

Sun Jun 20, 11:04am

Sun Jun 20, 10:04am

Sun Jun 20, 9:04am

Sun Jun 20, 8:04am

Sun Jun 20, 7:04am

Sun Jun 20, 6:04am

Sun Jun 20, 5:04am

Sun Jun 20, 4:04am

Sun Jun 20, 3:04am

Sun Jun 20, 2:04am

Sun Jun 20, 1:04am

Sun Jun 20, 12:05am

Sat Jun 19, 11:04pm

Sat Jun 19, 10:04pm

Sat Jun 19, 9:05pm

Sat Jun 19, 8:04pm

Sat Jun 19, 7:04pm

Sat Jun 19, 6:04pm

Sat Jun 19, 5:04pm

Sat Jun 19, 4:04pm

Sat Jun 19, 3:04pm

Sat Jun 19, 2:04pm

Sat Jun 19, 1:04pm

Sat Jun 19, 12:04pm

Sat Jun 19, 11:04am

Sat Jun 19, 10:04am

Sat Jun 19, 9:04am

Sat Jun 19, 8:04am

Sat Jun 19, 7:04am

Sat Jun 19, 6:04am

Sat Jun 19, 5:04am

Sat Jun 19, 4:04am

Sat Jun 19, 3:04am

Sat Jun 19, 2:04am

Sat Jun 19, 1:04am

Sat Jun 19, 12:04am

Fri Jun 18, 11:05pm

Fri Jun 18, 10:04pm

Fri Jun 18, 9:04pm

Fri Jun 18, 8:04pm

Fri Jun 18, 7:04pm

Fri Jun 18, 6:04pm

Fri Jun 18, 5:04pm

Fri Jun 18, 4:04pm

Fri Jun 18, 3:04pm

Fri Jun 18, 2:04pm

Fri Jun 18, 1:05pm

Fri Jun 18, 12:04pm

Fri Jun 18, 11:04am

Fri Jun 18, 10:05am

Fri Jun 18, 9:04am

Fri Jun 18, 8:04am

Fri Jun 18, 7:04am

Fri Jun 18, 6:04am

Fri Jun 18, 5:04am

Fri Jun 18, 4:04am

Fri Jun 18, 3:04am

Fri Jun 18, 2:04am

Fri Jun 18, 1:04am

Fri Jun 18, 12:04am

Thu Jun 17, 11:04pm

Thu Jun 17, 10:04pm

Thu Jun 17, 9:04pm

Thu Jun 17, 8:04pm

Thu Jun 17, 7:04pm

Thu Jun 17, 6:04pm

Thu Jun 17, 5:04pm

Thu Jun 17, 4:04pm

Thu Jun 17, 3:04pm

Thu Jun 17, 2:04pm

Thu Jun 17, 1:05pm

Thu Jun 17, 12:04pm

Thu Jun 17, 11:04am

Thu Jun 17, 10:05am

Thu Jun 17, 9:04am

Thu Jun 17, 8:04am

Thu Jun 17, 7:04am

Thu Jun 17, 6:04am

Thu Jun 17, 5:04am

Thu Jun 17, 4:04am

Thu Jun 17, 3:04am

Thu Jun 17, 2:04am

Thu Jun 17, 1:04am

Thu Jun 17, 12:04am

Wed Jun 16, 11:04pm

Wed Jun 16, 10:04pm

Wed Jun 16, 9:04pm

Wed Jun 16, 8:04pm

Wed Jun 16, 7:04pm

Wed Jun 16, 6:04pm

Wed Jun 16, 5:04pm

Wed Jun 16, 4:04pm

Wed Jun 16, 3:04pm

Wed Jun 16, 2:04pm

Wed Jun 16, 1:04pm

Wed Jun 16, 12:04pm

Wed Jun 16, 11:04am

Wed Jun 16, 10:04am

Wed Jun 16, 9:04am

Wed Jun 16, 8:04am

Wed Jun 16, 7:04am

Wed Jun 16, 6:04am

Wed Jun 16, 5:04am

Wed Jun 16, 4:04am

Wed Jun 16, 3:04am

Meta data:

ID: 38ea126a-8be5-44f3-b519-f3ffd5272764
Link: https://api.weather.gov/products/38ea126a-8be5-44f3-b519-f3ffd5272764